Reflectivity
-20 -20 -20 -20 -20 -20 -20 -20 -20 -20 -20 -20 -20 -20 -20 -20 -20 -20 -20 -20 -20 -20 -20 -20 -20 -20 -20 -20 -20 -20 -20 -20 -20 -20 -20 -20 -20 -20 -20 -20 -20 -20 -20 -20 -20 -20 -20 -20 -20
-20 -20 -20 -20 -20 -20 -20 -20 -20 -20 -20 -20 -20 -20 -20 -20 -20 -20 -20 -20 -20 -20 -20 -20 -20 -20 -20 -20 -20 -20 -20 -20 -20 -20 -20 -20 -20 -20 -20 -20 -20 -20 -20 -20 -20 -20 -20 -20 -20
-20 -20 -20 -20 -20 -20 -20 -20 -20 -20 -20 -20 -20 -20 -20 -20 -20 -20 -20 -20 -20 -20 -20 -20 -20 -20 -20 -20 -20 -20 -20 -20 -20 -20 -20 -20 -20 -20 -20 -20 -20 -20 -20 -20 -20 -20 -20 -20 -20
-20 -20 -20 -20 -20 -20 -20 -20 -20 -20 -20 -20 -20 -20 -20 -20 -20 -20 -20 -20 -20 -20 -20 -20 -20 -20 -20 -20 -20 -20 -20 -20 -20 -20 -20 -20 -20 -20 -20 -20 -20 -20 -20 -20 -20 -20 -20 -20 -20
-20 -20 -20 -20 -20 -20 -20 -20 -20 -20 -20 -20 -20 -20 -20 -20 -20 -20 -20 -20 -20 -20 -20 -20 -20 -20 -20 -20 -20 -20 -20 -20 -20 -20 -20 -20 -20 -20 -20 -20 -20 -20 -20 -20 -20 -20 -20 -20 -20
-20 -20 -20 -20 -20 -20 -20 -20 -20 -20 -20 -20 -20 -20 -20 -20 -20 -20 -20 -20 -20 -20 -20 -20 -20 -20 -20 -20 -20 -20 -20 -20 -20 -20 -20 -20 -20 -20 -20 -20 -20 -20 -20 -20 -20 -20 -20 -20 -20
-20 -20 -20 -20 -20 -20 -20 -20 -20 -20 -20 -20 -20 -20 -20 -20 -20 -20 -20 -20 -20 -20 -20 -20 -20 -20 -20 -20 -20 -20 -20 -20 -20 -20 -20 -20 -20 -20 -20 -20 -20 -20 -20 -20 -20 -20 -20 -20 -20
-20 -20 -20 -20 -20 -20 -20 -20 -20 -20 -20 -20 -20 -20 -20 -20 -20 -20 -20 -20 -20 -20 -20 -20 -20 -20 -20 -20 -20 -20 -20 -20 -20 -20 -20 -20 -20 -20 -20 -20 -20 -20 -20 -20 -20 -20 -20 -20 -20
-20 -20 -20 -20 -20 -20 -20 -20 -20 -20 -20 -20 -20 -20 -20 -20 -20 -20 -20 -20 -20 -20 -20 -20 -20 -20 -20 -20 -20 -20 -20 -20 -20 -20 -20 -20 -20 -20 -20 -20 -20 -20 -20 -20 -20 -20 -20 -20 -20
-20 -20 -20 -20 -20 -20 -20 -20 -20 -20 -20 -20 -20 -20 -20 -20 -20 -20 -20 -20 -20 -20 -20 -20 -20 -20 -20 -20 -20 -20 -20 -20 -20 -20 -20 -20 -20 -20 -20 -20 -20 -20 -20 -20 -20 -20 -20 -20 -20
-20 -20 -20 -20 -20 -20 -20 -20 -20 -20 -20 -20 -20 -20 -20 -20 -20 -20 -20 -20 -20 -20 -20 -20 -20 -20 -20 -1 -20 -20 -20 -20 -20 -20 -20 -20 -20 -20 -20 -20 -20 -20 -20 -20 -20 -20 -20 -20 -20
-20 -20 -20 -20 -20 -20 -20 -20 -20 -20 -20 -20 -20 -20 -20 -20 -20 -20 -20 -20 -20 -20 -20 -20 -20 -20 -20 -20 10 -14 -20 -20 -20 -20 -20 -20 -20 -20 -20 -20 -20 -20 -20 -20 -20 -20 -20 -20 -20
-20 -20 -20 -20 -20 -20 -20 -20 -20 -20 -20 -20 -20 -20 -20 -20 -20 -20 -20 -20 -20 -20 -20 -20 -20 -20 -5 -3 9 18 -5 -20 -20 -20 -20 -19 -18 -20 -20 -20 -20 -20 -20 -20 -20 -20 -20 -20 -20
-20 -20 -20 -20 -20 -20 -20 -20 -20 -20 -20 -20 -20 -20 -20 -20 -20 -20 -20 -20 -20 -20 -20 -20 -20 -20 -20 -20 -20 9 4 -17 6 -20 -20 -15 -15 -20 -20 -20 -20 -20 -20 -20 -20 -20 -20 -20 -20
-20 -20 -20 -20 -20 -20 -20 -20 -20 -20 -20 -20 -20 -20 -20 -20 -20 -20 -20 -20 -20 -20 -20 -20 -20 -20 -20 -20 -20 -20 26 -20 -20 19 3 -13 -6 -0 -18 -20 -20 -20 -20 -20 -20 -20 -20 -20 -20
-20 -20 -20 -20 -20 -20 -20 -20 -20 -20 -20 -20 -20 -20 -20 -20 -20 -20 -20 -20 -20 -20 -20 -20 -20 -20 -20 -20 -20 -20 -20 -20 4 -20 -14 18 -20 16 9 -15 -20 -20 -20 -20 -20 -20 -20 -20 -20
-20 -20 -20 -20 -20 -20 -17 -20 -20 -20 -20 -20 -20 -20 -20 -20 -20 -20 -20 -20 -20 -20 -20 -20 -20 -20 -20 -20 -20 -20 -20 -20 -12 -20 6 30 -20 -20 37 -6 12 -20 -20 -20 -20 -20 -20 -20 -20
-20 -20 -20 -20 -20 -20 -20 -20 -20 -20 -20 -20 -20 -20 -20 -20 -20 -20 -20 -20 -20 -20 -20 -20 -20 -20 -20 -20 -20 -20 -20 -20 -20 -20 -20 -20 33 -11 20 7 -1 13 2 -20 3 -20 -20 -20 -20
-20 -20 -20 -20 -20 -20 -20 -20 -20 -20 -20 -1 -20 -3 3 10 8 -20 -20 -20 -20 -20 -20 -20 -20 -20 -20 -20 -20 -20 -20 -20 -20 -20 -20 -20 -20 -20 -20 -20 -20 -20 -2 -20 -20 29 -20 -20 -18
-20 -20 -20 -20 -20 -20 -20 -20 -20 -20 -20 7 15 13 4 14 12 -20 -20 -20 -20 -20 -20 -20 -20 -20 -20 -20 -20 -20 -20 -20 -20 -20 -20 -20 -20 -20 -20 -20 -20 -20 -16 33 -6 33 35 -7 17
-20 -20 -20 -20 -20 -20 -20 -20 -20 -20 -20 -20 7 3 12 15 5 -20 -20 -20 -20 -20 -20 -20 -20 -20 -20 -20 -20 -20 -20 -20 -20 -20 -20 -20 -20 -20 -20 -1 17 -20 -6 -0 12 16 36 38 35
-20 -20 -20 -20 -20 -20 -20 6 -20 -20 -20 -20 15 17 27 27 14 -12 -20 -20 -20 -20 -20 -20 -20 -20 -20 -20 -20 -20 -20 -20 -20 -20 -20 -20 -20 -20 -20 -20 10 -12 -12 24 14 12 30 37 41
-20 -20 -20 -20 -20 -20 -20 -3 -20 -20 -20 -20 -12 22 32 23 -10 -20 -20 -18 -18 -20 7 -20 -20 -20 -20 -20 -20 -20 -20 -20 -20 -20 -20 -20 -20 -20 -20 -20 -20 19 26 9 -20 25 -20 -20 -3
-20 -20 -20 -20 -19 -10 -20 -20 -20 -20 -20 -20 21 21 17 29 5 -20 -19 -17 12 -16 -20 -20 -13 -3 -10 -20 -20 -20 -20 -20 -20 -20 -20 -20 -20 -20 -20 -20 -20 -20 -17 27 8 12 26 -20 -20
-20 -20 -16 -20 5 -20 -20 -20 -20 -20 -5 -20 22 37 29 -7 -20 -20 -20 1 -12 11 12 -20 -18 -1 -5 -17 -15 -8 -17 -20 -20 -20 -20 -20 -20 -20 -20 -20 -20 -20 1 29 32 30 13 16 20
-20 -20 -19 -20 -20 8 -20 -12 -20 -18 13 28 45 33 36 29 22 12 12 -5 -20 -20 -20 -20 -20 -20 -20 -18 -19 -20 -20 -20 -20 -20 -15 -8 -2 -10 -20 -20 -20 -20 -20 -19 13 30 32 7 -20
-17 -20 -7 2 -20 -20 -20 -20 -20 -15 45 39 37 21 11 8 -10 7 5 -20 -20 -5 -15 -18 -19 -20 -20 -20 -20 -20 -20 -20 -20 -20 6 2 7 12 0 -20 -20 -20 -20 -13 19 31 32 -16 -14
-20 -20 -19 -7 2 -13 -20 -1 28 34 39 36 38 25 7 26 27 14 -1 -9 7 -8 -12 -20 -20 -19 -20 -20 -20 -20 -20 -20 -20 5 -0 10 7 14 7 -20 -20 -20 -20 -2 -7 17 16 -15 17
-20 -11 2 -6 4 12 -20 14 37 35 42 36 40 33 23 6 13 17 5 -15 -20 -20 -20 -20 -20 -20 -20 -20 -20 -20 -20 -20 -20 -20 16 15 9 16 -3 -20 -17 -20 -18 28 26 4 -14 12 5
4 -6 1 12 21 12 29 23 26 21 30 33 -15 -4 22 11 13 0 -1 -20 -20 -20 -20 -20 -20 -20 -20 -20 -20 -20 -20 -20 -20 -20 -20 -14 -19 -20 -20 18 5 -10 5 28 25 35 27 14 17
Wind_Speed
6 7 1 3 4 4 5 10 4 4 4 3 3 7 6 3 4 5 4 6 11 12 11 9 10 14 12 12 11 12 15 15 14 14 15 14 14 13 12 12 12 12 12 12 11 8 6 4 4
4 5 0 3 4 2 7 10 4 3 5 4 6 5 5 5 6 6 3 7 9 12 11 10 9 11 12 12 11 11 13 14 15 15 15 15 15 14 13 12 12 11 11 12 12 11 8 6 5
3 4 2 4 4 6 6 4 2 5 4 4 3 5 4 5 5 5 5 9 8 7 11 11 12 10 12 12 12 12 11 12 13 14 15 15 15 15 14 13 12 11 11 13 13 12 10 9 7
2 5 4 1 10 11 8 15 4 5 3 4 2 2 4 4 5 9 9 9 8 7 10 13 16 12 10 10 10 11 11 11 11 13 14 14 14 15 14 13 12 11 10 10 10 8 7 7 7
2 1 2 4 9 10 14 15 4 3 6 4 5 3 3 3 11 10 9 9 7 7 6 9 14 15 13 11 11 10 11 11 12 12 13 14 14 14 13 12 12 12 10 10 10 9 7 7 6
4 2 2 5 10 12 10 11 7 6 2 3 1 1 2 7 11 6 7 8 8 9 6 7 9 13 13 13 11 10 10 10 12 13 13 13 12 12 12 13 12 11 10 10 9 9 8 9 9
4 3 6 9 13 17 16 13 3 3 3 3 2 3 5 9 7 6 4 6 7 10 10 7 7 8 9 11 11 10 10 11 11 12 12 12 13 12 12 13 13 12 11 10 10 8 8 9 9
3 2 7 7 10 13 13 18 3 4 3 5 3 3 3 5 7 6 4 5 7 8 9 9 7 7 7 5 10 11 11 10 11 11 12 12 12 12 12 11 11 12 11 10 9 9 9 9 8
2 2 11 9 7 13 13 16 11 2 2 2 3 2 6 8 8 5 4 5 6 5 9 8 9 8 7 7 7 10 11 10 10 9 10 9 5 7 9 10 11 12 12 11 10 10 10 9 9
5 3 8 8 15 13 20 13 16 7 6 5 2 5 6 5 6 7 2 5 3 5 6 8 8 8 9 6 7 6 7 6 6 6 8 6 7 7 9 9 11 12 11 11 10 10 10 8 4
7 13 13 16 16 18 15 22 17 12 10 6 6 8 8 5 3 5 4 3 7 6 7 7 7 7 10 4 5 4 4 4 5 7 7 6 6 6 7 5 7 6 10 5 6 5 4 6 5
11 15 15 17 16 15 20 19 18 10 9 9 10 7 3 3 5 6 5 5 8 4 7 7 7 5 2 4 5 5 5 5 5 7 8 7 4 6 6 5 7 7 6 8 7 5 7 8 8
12 11 13 15 14 11 15 15 21 21 9 10 12 14 9 7 6 4 6 6 2 7 9 9 7 4 2 4 3 4 5 6 7 8 10 9 8 7 6 7 8 8 8 8 8 8 8 9 9
12 19 21 17 19 16 19 23 16 10 10 11 10 14 10 9 9 5 5 3 6 8 8 7 9 7 7 6 4 4 4 5 5 5 7 11 8 8 8 6 7 9 9 9 9 9 9 9 8
11 17 20 13 8 8 12 30 22 18 17 18 15 16 11 10 10 9 7 8 9 7 7 9 8 8 8 6 5 4 4 4 5 5 7 11 9 8 10 7 7 9 9 10 9 8 7 8 8
13 11 15 5 12 16 13 37 12 11 13 19 23 16 11 9 10 9 9 10 10 11 10 11 11 10 9 7 4 4 4 3 4 5 5 8 10 8 6 5 5 6 9 9 9 9 7 8 7
6 14 15 26 14 20 14 28 19 14 18 23 20 14 12 9 11 10 11 12 12 13 14 13 12 13 12 9 7 6 6 4 4 4 5 9 10 10 9 6 5 6 5 8 10 7 9 9 7
7 9 14 22 12 13 20 22 22 17 18 19 14 9 9 10 11 14 16 15 14 15 14 13 11 13 11 9 8 6 6 7 7 6 6 6 6 10 9 9 10 6 6 5 5 11 8 9 8
18 18 19 22 16 12 18 19 10 20 22 19 15 4 5 14 15 17 15 14 15 14 14 11 10 8 7 6 7 8 8 8 8 8 10 11 6 9 12 10 11 11 11 12 10 8 9 3 5
18 17 19 22 18 11 16 21 19 21 19 22 15 8 5 19 17 16 14 13 14 11 9 9 8 7 5 6 5 4 7 5 9 9 11 10 10 7 11 13 12 13 11 11 10 11 3 2 8
18 9 17 20 15 14 12 20 18 27 19 21 18 18 15 24 21 19 14 14 12 12 11 11 10 10 9 11 8 7 6 6 5 7 11 12 14 14 11 15 13 12 11 12 7 4 3 6 1
17 7 4 12 9 10 11 13 24 17 20 14 17 14 21 22 22 18 17 15 13 12 14 11 9 9 10 9 8 9 7 10 8 10 11 12 17 15 15 16 17 15 10 11 11 8 6 16 14
3 8 5 3 7 12 12 9 21 2 14 10 11 13 19 17 21 18 18 15 15 14 11 7 9 8 9 10 8 7 9 9 9 10 15 15 14 15 14 15 16 16 10 12 12 12 12 15 13
4 5 3 3 1 11 14 15 18 12 7 6 7 8 23 20 18 17 17 15 15 11 8 6 11 12 12 12 12 11 12 14 12 12 12 11 11 12 14 14 14 14 15 13 13 15 19 14 13
6 6 3 4 5 7 6 7 14 10 11 6 16 14 20 20 17 16 16 12 15 9 7 9 12 13 15 14 14 15 12 13 14 14 12 16 12 12 14 14 14 9 13 13 11 13 15 15 15
6 9 5 5 3 5 5 6 6 10 18 18 18 24 20 18 17 15 14 12 12 11 9 9 11 13 13 14 15 15 14 9 10 12 13 13 13 14 18 16 15 10 6 10 16 13 11 11 12
3 7 2 6 6 4 6 4 7 14 8 20 19 20 18 17 15 13 16 14 13 11 12 13 12 12 14 14 13 15 15 14 13 16 15 13 15 14 20 17 17 12 14 12 15 15 15 13 12
7 6 2 2 4 5 5 1 6 15 12 16 16 16 17 17 15 13 14 14 12 11 9 11 12 13 14 14 13 12 14 15 15 14 15 16 16 16 16 14 15 16 14 14 18 14 10 14 12
7 9 1 3 4 3 4 4 1 9 9 12 13 15 14 16 13 13 12 10 10 11 11 11 13 14 14 14 14 14 15 15 15 13 14 14 16 16 15 16 16 16 17 14 14 13 13 14 14
9 17 14 3 3 2 5 2 4 7 1 8 14 16 14 16 11 10 10 12 10 11 12 13 13 13 14 14 14 14 14 15 14 15 15 15 16 15 15 14 16 11 11 11 12 13 13 15 16
Wind_Direction
319 295 267 347 47 83 244 263 292 334 45 22 59 74 124 207 84 158 230 16 135 138 147 158 149 141 143 146 147 147 145 144 143 142 138 138 136 134 133 133 135 136 137 141 146 154 165 168 161
329 319 164 279 116 249 265 250 159 81 130 98 72 49 60 105 66 96 61 352 114 147 151 152 158 143 140 142 148 152 152 153 151 148 148 147 146 145 146 145 147 148 148 152 160 169 179 179 185
299 210 64 165 192 204 245 107 233 127 68 53 47 68 91 123 63 112 126 49 32 158 159 157 151 149 146 149 151 158 162 157 155 154 154 155 154 153 155 155 157 160 166 166 170 181 182 180 185
321 347 341 96 262 270 256 286 223 128 86 106 98 74 62 156 125 130 108 80 46 30 164 155 148 149 152 152 156 160 163 161 159 159 160 162 163 162 161 163 165 172 178 180 165 167 181 183 187
313 316 262 258 268 261 270 278 266 172 156 177 142 191 119 125 107 100 102 101 96 66 98 153 151 151 153 160 161 167 165 165 161 163 164 166 170 169 166 169 172 178 186 182 165 176 190 187 198
302 123 318 255 265 270 278 269 251 182 172 293 350 159 206 96 86 90 106 131 135 120 114 134 155 154 157 161 167 165 167 169 170 168 168 168 172 171 173 176 181 183 185 181 180 178 187 196 203
175 26 257 277 284 299 304 312 341 72 38 352 52 75 110 78 99 71 30 125 144 127 135 142 153 160 162 164 163 161 168 175 177 174 171 173 174 177 180 184 187 188 189 189 184 182 187 200 207
165 153 271 265 285 286 289 302 136 118 245 146 100 169 196 176 116 87 0 312 157 141 151 156 155 161 157 167 167 164 168 177 177 178 177 176 179 180 184 189 190 192 192 191 187 181 185 203 210
321 223 258 257 254 270 306 344 322 301 32 49 123 165 231 161 109 78 14 332 128 165 156 152 158 167 163 163 176 166 167 171 177 180 179 171 179 185 189 194 194 196 197 191 186 181 188 195 211
158 228 244 245 268 293 308 316 318 342 332 308 243 276 259 255 140 137 157 294 290 183 171 158 156 161 158 175 163 169 171 171 172 172 176 181 183 182 190 194 200 196 198 194 188 183 190 179 201
242 243 262 265 277 290 297 307 307 319 310 287 261 248 241 208 179 150 175 253 265 166 169 164 151 160 155 188 167 178 173 171 182 182 177 186 193 191 195 186 197 193 196 199 183 177 188 191 198
267 273 269 273 271 273 282 289 285 280 272 293 302 278 260 233 193 182 183 242 279 318 170 145 141 148 208 168 168 170 167 178 187 194 181 184 196 203 193 192 187 187 190 194 187 188 191 196 207
271 274 287 301 302 303 305 294 281 274 280 281 292 296 272 238 214 185 214 221 2 108 83 78 99 104 207 220 195 188 184 190 190 192 197 188 195 202 196 195 186 189 187 194 194 190 192 203 205
288 287 281 284 289 292 292 287 283 297 297 265 259 272 261 230 192 185 233 134 110 80 95 100 79 73 59 53 347 253 219 222 204 190 211 203 194 201 204 198 186 192 194 191 197 194 192 198 203
302 311 302 284 269 268 275 276 264 277 261 261 253 251 242 227 181 188 137 104 98 86 60 54 64 46 47 40 16 11 317 279 238 222 209 215 209 199 209 205 195 198 197 189 194 199 191 194 196
298 292 291 233 260 264 244 268 260 252 246 254 256 245 225 204 186 129 115 93 80 68 59 41 31 29 20 13 5 340 328 307 292 272 217 219 212 205 206 203 215 190 195 188 194 196 189 198 187
226 262 260 285 251 261 249 270 290 333 296 253 246 241 210 193 118 127 94 87 79 66 56 46 35 23 5 356 346 333 316 295 273 282 270 214 216 223 217 224 219 213 190 197 194 193 187 187 189
256 256 278 287 302 333 312 298 304 302 306 313 258 219 194 166 143 108 93 84 73 68 57 44 36 21 3 354 347 350 348 352 343 322 290 266 215 210 217 228 222 216 209 200 192 193 194 189 180
256 266 279 291 309 305 288 284 320 314 307 299 286 221 193 115 109 95 86 80 74 61 57 45 36 13 4 353 354 343 333 324 319 315 311 320 313 220 221 224 228 222 224 218 203 200 187 177 153
258 275 288 293 304 315 308 297 299 295 281 284 299 201 181 122 103 93 83 76 77 69 61 51 38 13 357 4 348 345 343 330 319 313 306 296 286 267 249 220 222 218 223 227 214 204 169 140 166
257 255 276 283 303 303 308 292 290 270 271 269 279 249 175 135 122 98 83 77 71 65 54 44 25 15 15 2 355 349 330 328 316 317 313 311 313 312 284 245 224 218 215 217 197 202 191 173 320
284 217 18 351 358 289 54 299 274 282 290 292 245 295 99 103 92 90 88 74 65 57 53 35 20 11 2 354 6 358 331 319 312 304 302 301 304 301 301 301 243 220 217 214 195 180 234 160 232
282 61 45 337 296 306 275 251 273 312 284 280 307 136 99 96 95 94 89 82 71 61 48 21 7 359 354 5 6 349 328 310 306 303 302 300 298 297 293 297 281 231 211 213 192 186 194 192 177
57 61 6 307 270 255 269 226 282 253 275 321 17 115 109 94 86 81 79 73 67 61 50 14 5 0 1 359 352 344 332 320 315 307 301 296 296 294 288 279 289 245 229 215 205 194 197 194 202
96 69 330 290 211 255 274 255 250 294 320 281 135 89 76 82 78 69 63 63 65 55 47 27 17 1 353 348 347 338 329 322 313 309 305 301 295 286 282 277 277 264 235 233 220 206 194 192 196
148 143 185 252 255 319 335 253 269 6 92 81 84 86 71 71 74 73 71 65 57 48 37 31 19 4 352 348 342 335 332 327 316 307 307 294 288 282 277 268 263 250 220 212 221 217 205 194 198
170 194 176 292 278 265 235 282 72 60 44 93 82 79 73 69 65 65 61 56 52 41 33 27 7 5 354 350 342 336 335 330 323 315 300 296 293 282 278 254 258 244 229 197 230 221 202 197 200
156 153 137 192 262 248 266 37 34 21 93 69 70 78 85 70 52 55 63 50 43 30 30 27 9 1 354 349 348 341 335 332 323 317 311 307 302 299 296 266 246 238 223 228 226 219 188 182 184
186 230 125 156 234 286 311 81 351 68 67 85 84 78 74 75 61 53 54 49 41 31 20 19 7 359 356 353 348 343 341 336 330 324 316 317 314 313 313 311 252 244 227 214 225 204 188 180 182
220 220 205 177 238 326 346 108 126 96 153 143 110 88 75 71 62 58 50 42 32 28 16 17 8 358 355 352 352 350 342 337 338 328 329 331 327 331 331 323 314 262 236 227 208 203 200 190 195